YCAS

Details ICAO YCAS
Name Casino
Region Australia
Timezone Australia/Sydney (UTC+10.0)
Plans Departing 3
Arriving 6
Stats Elevation 85 ft / 26 m (AMSL)
Location -28.880314° 153.057584°
Runways 3
Magnetic Variation 11.428° E
Sunrise 2018-05-24 20:30:28 UTC / 2018-05-25 06:30:28 Local
Sunset 2018-05-25 07:01:44 UTC / 2018-05-25 17:01:44 Local
Advertisement - Login to hide

Runways

ID Width Length Bearing (true) Bearing (mag) Surface Threshold Offset Overrun Length
10 98 ft / 30 m 3,599 ft / 1,097 m 105.56° 94.13° Asphalt 0 ft / 0 m 863 ft / 263 m
10C 98 ft / 30 m 730 ft / 223 m 105.54° 94.11° Asphalt 0 ft / 0 m 0 ft / 0 m
10L 151 ft / 46 m 2,738 ft / 835 m 105.55° 94.12° Grass 0 ft / 0 m 0 ft / 0 m
28 98 ft / 30 m 3,599 ft / 1,097 m 285.56° 274.13° Asphalt 0 ft / 0 m 0 ft / 0 m
28C 98 ft / 30 m 730 ft / 223 m 285.53° 274.10° Asphalt 0 ft / 0 m 0 ft / 0 m
28R 151 ft / 46 m 2,738 ft / 835 m 285.55° 274.12° Grass 0 ft / 0 m 0 ft / 0 m

Map

Weather


0- 5 10 15 20 25 30 35+ Temperature / ° C

Clouds and Precipitation
Forecast for 2018-05-25 12:00 UTC. Updated 2 hours ago

Ground ~20,000 ft ~40,000 ft Winds

METAR

YCAS 251200Z AUTO 00000KT //// // ////// 14/13 Q1027

TAF

Not found

Frequencies

Unicom 122.30 MHz ACTIVATE LIGHTS ONLY MULT
Tower 120.30 MHz BRISBANE CNTR
Unicom 124.20 MHz CASINO MULT
Warning: Do not use this data for real-world aviation or navigation. No guarantee of current accuracy is given.